Location: Anantavaram
(16.7914°N, 80.5988°E)
Time: 15:15:38
(UTC+00:00)

Daily predictions for brighter satellites

Satellite Brightness Start Highest point End
(mag) Time Altitude Azimuth Time Altitude Azimuth Time Altitude Azimuth
Atlas Centaur 2 4.1 13:22:58 10° W 13:30:01 44° NNW 13:37:52 10° NE
ADEOS Rocket 3.9 13:29:56 10° S 13:36:40 66° WSW 13:44:06 10° NNW
USA 59 Rocket 1.1 13:32:53 10° NNW 13:38:29 83° ENE 13:46:32 10° SSE
Lacrosse 4 Rocket 1.5 13:35:04 10° NNW 13:39:19 86° WSW 13:43:36 10° SSE
H-2A R/B 3.4 13:38:38 10° NW 13:39:56 12° NNW 13:40:55 10° N
Cosmos 1536 2.8 13:36:49 10° N 13:40:43 63° E 13:44:38 10° SSE
Cosmos 1626 3.0 13:41:00 10° SE 13:43:33 22° E 13:46:07 10° NE
Delta 7925 Rocket 4.4 13:36:00 10° WNW 13:44:35 79° NNE 13:51:01 11° ESE
Cosmos 2251 Rocket 3.8 13:40:09 10° S 13:45:07 45° E 13:50:06 10° NNE
Cosmos 1151 Rocket 2.9 13:41:25 10° S 13:45:43 80° E 13:49:59 10° N
USA 186 4.1 13:45:45 10° E 13:46:37 11° ENE 13:47:30 10° ENE
Cosmos 1733 3.8 13:43:37 10° NNE 13:46:46 31° E 13:49:55 10° SSE
CZ-4 R/B 2.6 13:44:12 10° SE 13:47:17 23° ENE 13:50:24 10° NNE
Meteor 2-4 Rocket 4.0 13:41:45 10° S 13:47:30 53° E 13:53:11 10° NNE
SJ-6B 3.5 13:45:43 10° SE 13:48:55 30° ENE 13:52:06 10° NNE
H-2A R/B 3.1 13:43:29 10° WNW 13:49:31 33° SW 13:52:59 10° SSE
ADEOS 3.6 13:44:56 10° SSE 13:50:04 64° ENE 13:55:13 10° N
Cosmos 1656 4.0 13:46:59 10° N 13:52:22 50° ENE 13:57:48 10° SSE
Cosmos 2285 Rocket 4.0 13:46:26 10° S 13:52:35 59° ESE 13:58:47 10° NNE
Cosmos 407 Rocket 3.4 13:51:29 10° S 13:56:44 73° ESE 14:01:55 10° NNE
YAOGAN 1 3.2 13:52:33 10° S 13:56:45 57° W 14:00:57 10° NNW
Landsat 7 4.1 13:52:45 10° S 13:57:24 70° WSW 14:02:04 10° NNW
Cosmos 1500 Rocket 3.5 13:53:57 10° N 13:58:15 66° E 14:02:35 10° SSE
Okean O Rocket 3.6 13:58:38 11° E 13:59:49 12° ENE 14:01:30 10° NE
Centaur AC-119 3.1 13:56:57 10° W 14:00:00 68° NNW 14:08:43 10° ENE
Orbus 7S 2.7 14:01:46 10° WNW 14:03:59 87° NNE 14:04:27 41° ESE
COSMOS 2406 3.2 14:00:22 10° S 14:06:02 63° ESE 14:11:42 10° NNE
ASTRO E2 2.3 14:02:42 10° WSW 14:06:09 82° NNW 14:09:37 10° ENE
Lacrosse 5 rocket 3.4 14:05:55 10° NNE 14:07:44 13° NE 14:09:10 11° ENE
Cosmos 1697 Rocket 4.0 14:04:40 10° NNE 14:08:59 23° ENE 14:11:20 18° ESE
Cosmos 1428 Rocket 4.4 14:03:31 10° S 14:09:34 70° E 14:15:37 10° N
Cosmos 1805 Rocket 3.5 14:09:34 10° N 14:14:01 86° E 14:18:26 10° S
DELTA 2 DEB (DPAF) 3.9 14:12:33 10° NNE 14:16:44 65° ESE 14:20:53 10° S
Meteor 1-18 Rocket 4.3 14:11:40 10° S 14:17:36 85° E 14:23:28 10° N
MAQSAT/ARIANE V 4.2 14:02:02 10° W 14:19:38 28° SSW 14:23:02 16° SSE
Cosmos 1666 Rocket 4.4 14:21:09 10° NNE 14:24:54 28° E 14:25:25 28° E
USA 234 4.2 14:19:09 10° NNE 14:25:23 50° NW 14:31:38 10° WSW
Resurs 01 Rocket 2.3 14:24:16 29° ESE 14:25:39 36° ENE 14:29:41 10° N
Cosmos 1627 Rocket 4.4 14:19:41 10° S 14:25:57 71° E 14:32:07 10° N
Cosmos 1980 Rocket 4.0 14:23:35 10° NE 14:26:04 13° ENE 14:26:36 13° ENE
Cosmos 1190 Rocket 3.9 14:21:03 10° S 14:26:17 71° ESE 14:31:32 10° NNE
Cosmos 1340 4.0 14:24:54 10° NNW 14:27:57 33° W 14:31:00 10° SSW
CZ-4B R/B 3.6 14:27:32 11° S 14:31:13 51° W 14:35:16 10° NNW
Sich 1 3.9 14:28:34 10° NNW 14:32:42 48° W 14:36:48 10° SSW
Cosmos 2360 4.2 14:27:19 10° N 14:33:00 68° ENE 14:35:58 29° SSE
GPS 2-15 Rocket1 4.5 14:34:08 10° SSW 14:37:13 23° S 14:37:13 23° S
Cosmos 1975 2.7 14:35:09 10° N 14:38:57 60° E 14:39:24 55° ESE
SPOT 1/Viking Rocket 3.9 14:37:36 14° S 14:41:56 61° WSW 14:47:00 10° NNW
GPS 2-12 Rocket1 2.9 14:39:07 10° WSW 14:43:33 70° SSE 14:44:29 52° ESE
Atlas 2A Centaur Rocket 3.5 14:41:02 10° WNW 14:43:59 20° NNW 14:45:20 13° NNE
CZ-4B R/B 3.0 14:43:43 31° SSE 14:46:22 85° ENE 14:51:38 10° N
PSLV R/B 4.5 14:48:59 36° NE 14:48:59 36° NE 14:51:31 10° N
Cosmos 1707 4.5 14:52:41 20° NNE 14:52:41 20° NNE 14:53:59 10° NNE
MOS 1-B 4.2 14:48:37 37° SSE 14:50:58 72° ENE 14:56:42 10° N
FALCON 9 R/B 2.9 14:49:04 10° NW 14:53:25 63° NE 14:58:14 32° ESE
Feng Yun 1-1 Rocket 4.3 14:51:11 32° SSE 14:54:05 88° ENE 14:59:56 10° NNW
CZ-4C R/B 3.3 14:50:20 10° NNE 14:54:11 68° ENE 14:54:11 68° ENE
Cosmos 1805 4.4 14:55:36 10° NNW 14:59:00 36° W 15:00:07 29° SW
deb Centaur AC-2 4.3 14:54:36 10° WNW 14:59:50 61° SSW 15:00:14 59° S
ATLAS CENTAUR R/B 4.2 14:53:04 10° NW 15:06:08 80° WSW 15:10:28 37° SSE
IRIDIUM 114 4.4 15:04:22 10° N 15:09:06 59° ENE 15:09:06 59° ENE
Delta 202 4.1 15:08:01 10° W 15:12:43 42° SSW 15:12:43 42° SSW
Okean-O 3.7 15:14:43 36° NNE 15:14:43 36° NNE 15:17:33 10° N
USA 186 4.4 15:18:09 17° W 15:18:16 17° W 15:20:31 10° NW
IRIDIUM 103 4.3 15:13:26 10° N 15:18:15 74° NE 15:18:15 74° NE
Atlas Centaur 2 4.5 15:13:38 10° WNW 15:20:39 31° N 15:27:46 10° ENE
CZ-4 R/B 4.1 15:20:03 10° WSW 15:21:44 12° W 15:23:25 10° WNW
Delta 128 4.3 15:15:56 10° WSW 15:22:04 74° SSE 15:22:15 73° SE
NATO 3D Rocket 3.6 15:22:53 10° WSW 15:27:24 75° WNW 15:27:24 75° WNW
OAO 3 Rocket 4.1 15:23:51 10° WNW 15:27:12 42° W 15:27:12 42° W
USA 59 Rocket 3.8 15:27:17 10° WSW 15:28:54 11° WSW 15:30:37 10° SW
Timation 1 Rocket 4.3 15:30:59 70° SW 15:31:36 79° WNW 15:37:32 10° NNE
Okean O Rocket 3.1 15:36:00 32° W 15:36:00 32° W 15:39:40 10° NW
Terra 4.1 15:43:30 15° NNE 15:43:30 15° NNE 15:44:30 10° NNE
Lacrosse 5 rocket 3.7 15:42:22 10° NW 15:44:01 21° WNW 15:44:01 21° WNW
Cosmos 1697 Rocket 4.2 15:48:05 10° NW 15:52:44 27° WSW 15:53:05 27° WSW
NOSS 3-4 (A) 4.4 15:48:55 10° NW 15:56:37 58° WSW 15:57:41 54° SW
NOSS 3-4 (C) 4.4 15:48:57 10° NW 15:56:39 59° WSW 15:57:39 55° SW
Cosmos 1980 Rocket 3.5 16:04:41 10° NNW 16:08:23 37° WNW 16:08:23 37° WNW
Centaur D-1AR AC-39 3.7 16:37:49 10° W 16:48:16 40° ENE 17:13:42 10° E
Centaur D-1AR AC-39 3.7 16:37:50 10° W 16:48:15 40° ENE 17:13:42 10° E
Centaur D-1AR AC-39 3.7 16:37:50 10° W 16:48:16 40° ENE 17:13:42 10° E
Centaur D-1AR AC-39 3.7 16:37:49 10° W 16:48:15 40° ENE 17:13:42 10° E
Centaur D-1AR AC-39 3.7 16:37:49 10° W 16:48:16 40° ENE 17:13:43 10° E
Atlas Centaur 2 4.2 17:03:55 10° NW 17:10:10 34° N 17:10:10 34° N
SL-16 R/B 3.0 21:26:24 50° ESE 21:27:37 59° ENE 21:33:44 10° N
Cosmos 1934 Rocket 4.1 21:45:44 59° NW 21:45:44 59° NW 21:51:17 10° N
SWIFT 3.8 21:51:23 32° ENE 21:51:23 32° ENE 21:53:46 10° E
Cosmos 1125 Rocket 4.5 21:52:46 36° NNW 21:52:46 36° NNW 21:56:20 10° N
ALOS 4.4 21:47:54 10° NNW 21:49:10 17° NNW 21:49:10 17° NNW
Cosmos 2123 Rocket 4.1 21:48:54 10° N 21:55:05 73° E 21:57:49 35° SSE
CZ-4 R/B 4.1 21:50:33 10° N 21:54:52 66° NNW 21:54:52 66° NNW
NOSS 2-3 (D) 4.4 21:56:52 41° NE 21:56:52 41° NE 21:59:22 10° NNE
Envisat 3.2 21:50:57 10° N 21:55:12 58° NNW 21:55:12 58° NNW
ADEOS II 4.5 21:56:51 10° NW 21:56:53 10° NW 21:56:53 10° NW
Cosmos 2150 Rocket 3.8 21:59:36 80° NW 21:59:36 80° NW 22:04:39 10° N
ATLAS 5 CENTAUR R/B 2.8 22:09:18 23° N 22:09:18 23° N 22:10:45 10° NNE
Cosmos 1758 Rocket 4.5 22:07:44 33° SE 22:09:12 46° E 22:13:27 10° NNE
NOAA 11 4.3 22:08:41 10° N 22:13:56 51° WNW 22:14:14 50° W
Cosmos 2058 Rocket 3.4 22:10:13 10° N 22:14:32 61° E 22:16:26 32° SSE
USA 81 3.9 22:11:08 10° N 22:16:21 74° W 22:17:38 51° SSW
Cosmos 494 Rocket 3.8 22:13:02 10° NNW 22:18:17 84° WSW 22:21:38 23° S
Lacrosse 5 3.2 22:18:23 22° SSE 22:20:40 32° ESE 22:25:07 10° ENE
NOSS 2-3 (E) 4.2 22:23:31 35° NW 22:23:31 35° NW 22:26:15 10° N
CZ-2C R/B 2.5 22:20:03 10° N 22:24:25 48° WNW 22:24:35 48° W
NOSS 2-3 (C) 4.3 22:28:22 30° NW 22:28:22 30° NW 22:31:05 10° N
Cosmos 2278 Rocket 3.2 22:23:36 15° S 22:27:58 44° ESE 22:33:18 10° NNE
PAYLOAD A 4.3 22:24:47 10° N 22:29:57 55° WNW 22:31:34 40° SW
NOSS 2-2 (D) 4.3 22:31:53 30° NW 22:31:53 30° NW 22:34:39 10° N
Cosmos 1626 Rocket 3.8 22:31:23 47° W 22:31:40 48° W 22:35:56 10° N
Thor Agena Rocket 3.7 22:33:08 10° N 22:38:15 53° WNW 22:40:22 33° SW
BREEZE-M DEB (TANK) 4.2 22:34:14 10° NNW 22:38:36 82° NE 22:59:05 10° SE
Iridium 4 Rocket 3.8 22:37:03 10° NNW 22:41:26 39° W 22:42:42 33° WSW
Cosmos 1603 3.8 22:38:44 10° NNW 22:44:13 50° WSW 22:49:41 10° S
Cosmos 1153 Rocket 4.5 22:41:24 22° SSW 22:45:27 60° W 22:51:29 10° N
Cosmos 2100 Rocket 4.1 22:39:19 10° S 22:45:34 76° E 22:51:45 10° N
OAO 2 Rocket 3.8 22:43:44 28° SSW 22:46:02 50° SE 22:50:48 10° ENE
Cosmos 1812 4.1 22:45:37 10° NW 22:47:25 21° WNW 22:47:25 21° WNW
Delta 198 4.5 22:49:00 18° WNW 22:51:28 34° NNW 22:54:57 10° NE
Aurora 2 Rocket 3.7 22:48:26 23° W 22:52:09 67° NNW 23:00:00 10° ENE
Okean 1-7 Rocket 3.9 22:50:53 27° SW 22:53:03 48° W 22:57:23 10° N
Cosmos 1943 4.5 22:51:33 10° WNW 22:54:48 19° W 22:54:48 19° W
NOSS 3-1 (C) 3.6 22:52:01 12° S 22:56:06 46° ESE 23:00:38 10° NE
H-2A R/B 2.2 23:02:02 10° N 23:07:08 55° WNW 23:12:00 10° SSW
Cosmos 2151 4.1 23:04:18 10° SSE 23:08:14 44° E 23:12:09 10° NNE
H-2A R/B 2.1 23:07:17 21° W 23:08:42 53° NNW 23:14:59 10° ENE
Cosmos 2016 Rocket 4.4 23:03:17 10° S 23:09:23 66° E 23:15:33 10° NNE
Cosmos 1515 3.4 23:06:56 10° N 23:10:24 90° WNW 23:13:52 10° S
SL-16 R/B 4.2 23:11:30 13° W 23:11:30 13° W 23:13:44 10° WNW
Cosmos 2084 4.3 23:08:25 10° S 23:12:41 49° ESE 23:16:45 10° NE
Cosmos 1238 Rocket 4.1 23:12:10 10° NW 23:13:22 14° W 23:13:22 14° W
GPS 2-15 Rocket1 3.7 23:14:38 14° W 23:18:18 38° SSW 23:22:39 10° SE
USA 290 3.1 23:16:38 10° S 23:19:46 49° ESE 23:22:52 10° NNE
Stardust Del rocket 4.3 23:17:36 10° W 23:21:45 60° SSW 23:30:05 10° ESE
Cosmos 1939 Rocket 3.0 23:17:59 10° N 23:21:48 51° WNW 23:25:34 10° SSW
GOES 2 Rocket 3.7 23:18:36 10° WNW 23:23:13 71° NNE 23:29:06 10° ESE
ATLAS 3B R/B 4.2 23:18:06 10° S 23:23:58 35° ESE 23:30:13 10° NE
Cosmos 1607 3.9 23:19:09 10° NNW 23:25:23 69° WSW 23:31:28 10° SSE
Cosmos 724 4.3 23:21:03 10° NNW 23:26:54 87° WSW 23:32:50 10° SSE
ARIANE 5 R/B 3.7 23:23:58 11° SW 23:27:08 29° SSE 23:39:07 10° ESE
Cosmos 1953 Rocket 3.5 23:22:55 10° S 23:27:12 90° SE 23:31:32 10° N
ISS -1.7 23:25:01 10° S 23:27:43 23° SE 23:30:27 10° ENE
Cosmos-2242 3.6 23:24:23 10° NNW 23:28:16 35° W 23:32:08 10° SSW
SWIFT 2.1 23:26:53 10° W 23:30:50 76° SSW 23:34:47 10° ESE
Cosmos 1666 3.6 23:28:03 10° SW 23:30:58 25° W 23:33:51 10° NNW
H-2A R/B 2.3 23:28:02 10° N 23:31:12 64° W 23:34:24 10° SSW
USA 276 3.7 23:30:13 10° W 23:32:29 20° NW 23:34:42 10° N
Cosmos 1602 3.5 23:29:32 10° SSW 23:33:04 65° W 23:36:37 10° N
Cosmos 1833 Rocket 4.4 23:30:15 10° N 23:35:29 39° ENE 23:40:42 10° SE
ARIANE 5 R/B 2.7 23:30:53 10° NNE 23:35:51 78° ESE 23:40:51 10° S
Cosmos 1825 Rocket 4.3 23:32:12 10° SSW 23:36:13 34° W 23:40:15 10° NNW
Cosmos 1378 3.2 23:35:56 10° NNW 23:39:00 40° W 23:42:04 10° SSW
Cosmos 1812 Rocket 4.0 23:38:15 10° NNW 23:42:20 42° W 23:46:28 10° SSW
